Yoho Park, British Columbia

7:13 AM MDT on June 27, 2017 (GMT -0600)
Yoho Park

Weather History for CWYL - September, 2014

Change the Weather History Date:

Monday, September 1, 2014

  Actual Average Record
Temperature  
Mean Temperature 44 °F -  
Max Temperature 51 °F - - ()
Min Temperature 38 °F - - ()
Degree Days  
Heating Degree Days 20    
Moisture  
Dew Point 41 °F    
Average Humidity 89    
Maximum Humidity 99    
Minimum Humidity 72    
Precipitation  
Precipitation 0.04 in - - ()
Sea Level Pressure  
Sea Level Pressure 29.95 in    
Wind  
Wind Speed 9 mph ()    
Max Wind Speed 17 mph    
Max Gust Speed -    
T = Trace of Precipitation, MM = Missing Value Source: Averaged Metar Reports

Daily Weather History Graph

Daily Weather History Graph

Search for Another Location

Airport or City:

Trip Planner

Search our weather history database for the weather conditions in past years. The results will help you decide how hot, cold, wet, or windy it might be!

Date:

Astronomy

Sep. 01, 2014 Rise Set
Actual Time 6:58 AM MDT 8:31 PM MDT
Civil Twilight 6:23 AM MDT 9:05 PM MDT
Nautical Twilight 5:40 AM MDT 9:48 PM MDT
Astronomical Twilight 4:53 AM MDT 10:35 PM MDT
Moon 2:35 PM MDT (9/1) 11:48 PM MDT (9/1)
Length of Visible Light 14h 42m
Length of Day
13h 32m
Waxing Crescent, 43% of the Moon is Illuminated
Sep 1
Waxing Crescent
Sep 2
First Quarter
Sep 8
Full
Sep 15
Last Quarter
Sep 24
New

Hourly Weather History & Observations

Time (MDT) Temp. Windchill Dew Point Humidity Pressure Visibility Wind Dir Wind Speed Gust Speed Precip Events Conditions
12:00 AM 42 °F - 40 °F 91% 29.96 in - SW 6.9 mph - -  
12:00 AM 41.7 °F 37.3 °F 40.3 °F 95% 29.96 in - SW 6.9 mph - N/A   Unknown
1:00 AM 42.1 °F 36.6 °F 40.5 °F 94% 29.95 in - SW 9.2 mph - N/A   Unknown
2:00 AM 41.9 °F 36.3 °F 40.6 °F 95% 29.95 in - SW 9.2 mph - N/A   Unknown
3:00 AM 41.5 °F 35.9 °F 38.3 °F 88% 29.95 in - SW 9.2 mph - N/A   Unknown
4:00 AM 40.5 °F 36.5 °F 39.6 °F 97% 29.98 in - WSW 5.8 mph - N/A   Unknown
5:00 AM 39.0 °F 34.0 °F 38.1 °F 97% 29.96 in - WSW 6.9 mph - N/A   Unknown
6:00 AM 39 °F - 39 °F 99% 29.96 in - WSW 10.4 mph - -  
6:00 AM 39.4 °F 32.7 °F 38.8 °F 98% 29.96 in - WSW 10.4 mph - N/A   Unknown
7:00 AM 39.9 °F 32.9 °F 39.4 °F 98% 29.97 in - WSW 11.5 mph - N/A   Unknown
8:00 AM 40.8 °F 34.1 °F 39.9 °F 97% 29.97 in - WSW 11.5 mph - N/A   Unknown
9:00 AM 41.9 °F 35.4 °F 38.3 °F 87% 29.96 in - West 11.5 mph - N/A   Unknown
10:00 AM 43.9 °F 36.2 °F 39.4 °F 84% 29.96 in - West 17.3 mph - N/A   Unknown
12:00 PM 46 °F - 40 °F 73% 29.96 in - West 16.1 mph - -  
12:00 PM 43.7 °F 36.3 °F 38.3 °F 81% 29.96 in - West 16.1 mph - N/A   Unknown
1:00 PM 46.2 °F 40.5 °F 41.5 °F 84% 29.95 in - West 12.7 mph - N/A   Unknown
2:00 PM 47.7 °F - 40.8 °F 77% 29.94 in - West 15.0 mph - N/A   Unknown
3:00 PM 47.5 °F - 44.2 °F 89% 29.94 in - WSW 12.7 mph - 0.01 in   Unknown
4:00 PM 46.9 °F - 44.2 °F 90% 29.94 in - West 10.4 mph - 0.01 in   Unknown
6:00 PM 49 °F - 43 °F 72% 29.91 in - WSW 11.5 mph - -  
6:00 PM 47.3 °F - 42.8 °F 84% 29.91 in - WSW 11.5 mph - N/A   Unknown
7:00 PM 47.1 °F - 43.9 °F 88% 29.91 in - WSW 11.5 mph - N/A   Unknown
8:00 PM 45.9 °F 40.8 °F 42.3 °F 87% 29.91 in - WSW 10.4 mph - N/A   Unknown
9:00 PM 44.6 °F 40.7 °F 42.3 °F 91% 29.91 in - West 6.9 mph - N/A   Unknown
11:00 PM 43.2 °F 38.4 °F 42.6 °F 98% 29.91 in - West 8.1 mph - 0.03 in   Unknown